Location: Pensacola
(30.4142°N, 87.2155°W)
Time: 00:07:28
(UTC-05:00)

DIWATA 2B (PO-101) - Visible Passes

Search period start: 15 April 2024 00:00
Search period end: 25 April 2024 00:00
Orbit: 577 x 588 km, 98.1° (Epoch: 14 April)

Date Brightness Start Highest point End Pass type
(mag) Time Alt. Az. Time Alt. Az. Time Alt. Az.
15 Apr ? 03:54:14 35° ENE 03:54:14 35° ENE 03:57:50 10° N visible
15 Apr ? 05:30:36 12° WNW 05:30:36 12° WNW 05:31:19 10° WNW visible
16 Apr ? 03:59:49 42° ENE 03:59:49 42° ENE 04:03:42 10° N visible
16 Apr ? 05:36:11 10° W 05:36:11 10° W 05:36:12 10° W visible
17 Apr ? 04:05:23 49° E 04:05:29 50° ENE 04:09:31 10° N visible
18 Apr ? 04:10:57 58° E 04:11:13 59° ENE 04:15:18 10° N visible
19 Apr ? 04:16:31 65° ESE 04:16:56 71° ENE 04:21:05 10° N visible
20 Apr ? 04:22:05 66° SSE 04:22:39 84° ENE 04:26:49 10° N visible
21 Apr ? 04:27:39 60° S 04:28:22 82° WSW 04:32:32 10° NNW visible
22 Apr ? 04:33:13 52° SSW 04:34:05 69° WSW 04:38:14 10° NNW visible
23 Apr ? 04:38:47 44° SSW 04:39:48 57° W 04:43:54 10° NNW visible
24 Apr ? 03:10:23 10° ENE 03:10:40 10° ENE 03:10:56 10° ENE visible
24 Apr ? 04:44:20 37° SW 04:45:30 48° W 04:49:32 10° NNW visible
